{"data":{"norad_id":68707,"epoch":"2026-05-25T03:04:17.681088Z","epoch_age_seconds":74205,"freshness":"FRESH","line1":"1 68707U 26081J   26145.12798242  .00037777  00000+0  68315-3 0  9994","line2":"2 68707  53.1597  39.9320 0001114  93.6453 266.4684 15.49344478  6431","mean_motion":15.49344478,"eccentricity":0.0001114,"inclination_deg":53.1597,"raan_deg":39.932,"arg_perigee_deg":93.6453,"mean_anomaly_deg":266.4684,"bstar":0.00068315,"rev_number":643,"period_min":92.942532822581,"perigee_km":417.88536071454,"apogee_km":419.39968319203,"semimajor_km":6796.7795219533,"source":"CELESTRAK","updated_at":"2026-05-25T13:38:21.999234Z"}}